Location: Cedar Brake
(32.2526°N, 97.8459°W)
Time: 21:00:19
(UTC+00:00)

CZ-2C R/B - Pass Details

Date: 22 April 2026
Orbit: 662 x 774 km, 98.5° (Epoch: 21 May)

Event Time Altitude Azimuth Distance (km) Brightness Sun altitude
Rises 11:09:40 0° 4° (N) 3,129 6.0 -9.8°
Reaches altitude 10° 11:12:02 10° 358° (N) 2,187 5.1 -9.3°
Maximum altitude 11:16:34 44° 287° (WNW) 953 2.7 -8.4°
Drops below altitude 10° 11:20:57 10° 216° (SW) 2,114 4.3 -7.5°
Enters shadow 11:23:06 - 210° (SSW) 2,960 5.1 -7.1°
